Flag for Philippines Weather past 2 weeks in Makati, Philippines

Now
84 °F

Broken clouds.


Feels Like: 92 °F
Forecast: 80 / 90 °F
Wind: 7 mph from Northwest

Location: National Airport

Current Time: Jul 30, 2015 at 4:11:10 PM

Latest Report: Jul 30, 2015 at 3:00 PM


Visibility: N/A

Pressure: 29.80 "Hg

Humidity: 74%

Dew point: 75 °F

Location of MakatiLocation

Historic Weather in Makati — Graph

°F

Makati temperature yesterday

Maximum temperature yesterday: 90 °F (at 1:00 PM)
Minimum temperature yesterday: 79 °F (at 4:00 AM)
Average temperature yesterday: 84 °F

Past Weeks' High & Low Weather Summary

 TemperatureHumidityPressure
High95 °F (Jul 20, 1:00 PM)100% (Jul 17, 7:00 PM)29.98 "Hg (Jul 17, 7:00 PM)
Low73 °F (Jul 17, 7:00 PM)41% (Jul 20, 1:00 PM)29.68 "Hg (Jul 15, 3:00 PM)
Average84 °F77%29.84 "Hg
* Reported Jul 15 3:00 PM — Jul 30 3:00 PM, Makati, Weather by CustomWeather, © 2015

Note: Actual official high and low records may vary slightly from our data, if they occured in-between our weather recording intervals... More about our weather records

Advertising

Makati weather history for previous 24 hours

 ConditionsComfort  
Time TempWeatherWind HumidityBarometerVisibility
3:00 PM
Thu, Jul 30
84 °FBroken clouds.7 mph74%29.80 "HgN/A
2:00 PM82 °FLight rain. More clouds than sun.8 mph79%29.80 "Hg6 mi
1:00 PM88 °FSprinkles. Broken clouds.7 mph62%29.83 "Hg6 mi
12:00 PM90 °FScattered clouds.8 mph63%29.83 "HgN/A
11:00 AM86 °FBroken clouds.9 mph66%29.86 "HgN/A
10:00 AM88 °FPassing clouds.9 mph62%29.86 "HgN/A
9:00 AM88 °FPassing clouds.5 mph59%29.86 "HgN/A
8:00 AM86 °FPassing clouds.No wind62%29.86 "HgN/A
7:00 AM81 °FPassing clouds.3 mph79%29.86 "HgN/A
6:00 AM77 °FPartly sunny.No wind94%29.86 "HgN/A
5:00 AM79 °FPassing clouds.No wind89%29.86 "HgN/A
4:00 AM79 °FPassing clouds.No wind84%29.83 "HgN/A
3:00 AM79 °FPassing clouds.1 mph89%29.86 "HgN/A
2:00 AM81 °FPassing clouds.3 mph84%29.86 "HgN/A
1:00 AM81 °FPassing clouds.3 mph79%29.89 "HgN/A
12:00 AM81 °FPassing clouds.5 mph84%29.89 "HgN/A
11:00 PM
Wed, Jul 29
82 °FPassing clouds.6 mph70%29.89 "HgN/A
10:00 PM84 °FPassing clouds.6 mph66%29.89 "HgN/A
9:00 PM84 °FPassing clouds.6 mph66%29.86 "HgN/A
8:00 PM84 °FPassing clouds.5 mph74%29.86 "HgN/A
7:00 PM84 °FPassing clouds.3 mph70%29.86 "HgN/A
6:00 PM84 °FBroken clouds.5 mph66%29.83 "HgN/A
5:00 PM84 °FBroken clouds.7 mph66%29.83 "HgN/A
4:00 PM84 °FBroken clouds.9 mph66%29.83 "HgN/A
Weather by CustomWeather, © 2015

See weather overviewHow to use our weather pages